Manitowoc, WI

10:29 PM CDT on August 28, 2016 (GMT -0500)
Manitowoc County

Weather History for KMTW - April, 2012

Change the Weather History Date:

Wednesday, April 11, 2012

  Actual Average Record
Temperature  
Mean Temperature 38 °F -  
Max Temperature 55 °F 49 °F 83 °F (1977)
Min Temperature 30 °F 32 °F 15 °F (1973)
Degree Days  
Heating Degree Days 27    
Moisture  
Dew Point 26 °F    
Average Humidity 61    
Maximum Humidity 81    
Minimum Humidity 50    
Precipitation  
Precipitation 0.00 in - - ()
Sea Level Pressure  
Sea Level Pressure 30.25 in    
Wind  
Wind Speed 8 mph (North)    
Max Wind Speed 15 mph    
Max Gust Speed 17 mph    
Visibility 10 miles    
Events      
Averages and records for this station are not official NWS values.
T = Trace of Precipitation, MM = Missing Value Source: NWS Daily Summary

Daily Weather History Graph

Daily Weather History Graph

Search for Another Location

Airport or City:

Trip Planner

Search our weather history database for the weather conditions in past years. The results will help you decide how hot, cold, wet, or windy it might be!

Date:

Astronomy

Apr. 11, 2012 Rise Set
Actual Time 6:13 AM CDT 7:30 PM CDT
Civil Twilight 5:43 AM CDT 8:00 PM CDT
Nautical Twilight 5:07 AM CDT 8:36 PM CDT
Astronomical Twilight 4:29 AM CDT 9:14 PM CDT
Moon 12:34 AM CDT (4/11) 9:52 AM CDT (4/11)
Length of Visible Light 14h 17m
Length of Day
13h 17m
Waning Gibbous, 69% of the Moon is Illuminated
Apr 11
Waning Gibbous
Apr 13
Last Quarter
Apr 21
New
Apr 29
First Quarter
May 5
Full

Hourly Weather History & Observations

Time (CDT) Temp. Windchill Dew Point Humidity Pressure Visibility Wind Dir Wind Speed Gust Speed Precip Events Conditions
12:15 AM 33.8 °F 27.7 °F 19.4 °F 56% 30.15 in 10.0 mi NW 6.9 mph - N/A   Clear
12:55 AM 33.8 °F 26.4 °F 19.4 °F 56% 30.15 in 10.0 mi WNW 9.2 mph - N/A   Clear
1:15 AM 33.8 °F 26.4 °F 19.4 °F 56% 30.15 in 10.0 mi WNW 9.2 mph - N/A   Clear
1:35 AM 33.8 °F 25.8 °F 19.4 °F 56% 30.15 in 10.0 mi West 10.4 mph - N/A   Partly Cloudy
1:55 AM 33.8 °F 25.8 °F 19.4 °F 56% 30.15 in 10.0 mi WNW 10.4 mph - N/A   Mostly Cloudy
2:15 AM 33.8 °F 25.8 °F 19.4 °F 56% 30.15 in 10.0 mi WNW 10.4 mph - N/A   Scattered Clouds
2:35 AM 33.8 °F 25.3 °F 19.4 °F 56% 30.15 in 10.0 mi WNW 11.5 mph - N/A   Clear
2:55 AM 33.8 °F 25.8 °F 19.4 °F 56% 30.15 in 10.0 mi WNW 10.4 mph - N/A   Clear
3:15 AM 33.8 °F 25.8 °F 19.4 °F 56% 30.15 in 10.0 mi WNW 10.4 mph - N/A   Scattered Clouds
3:55 AM 32.0 °F 24.2 °F 19.4 °F 60% 30.16 in 10.0 mi WNW 9.2 mph - N/A   Overcast
4:15 AM 32.0 °F 24.8 °F 19.4 °F 60% 30.16 in 10.0 mi NW 8.1 mph - N/A   Overcast
4:35 AM 32.0 °F 25.6 °F 19.4 °F 60% 30.17 in 10.0 mi NW 6.9 mph - N/A   Overcast
4:55 AM 32.0 °F 26.4 °F 19.4 °F 60% 30.18 in 10.0 mi NW 5.8 mph - N/A   Overcast
5:15 AM 33.8 °F 27.0 °F 21.2 °F 60% 30.19 in 10.0 mi WNW 8.1 mph - N/A   Overcast
5:35 AM 32.0 °F 25.6 °F 21.2 °F 64% 30.19 in 10.0 mi NW 6.9 mph - N/A   Overcast
5:55 AM 30.2 °F 22.6 °F 21.2 °F 69% 30.20 in 10.0 mi WNW 8.1 mph - N/A   Scattered Clouds
6:15 AM 32.0 °F 25.6 °F 21.2 °F 64% 30.21 in 10.0 mi WNW 6.9 mph - N/A   Clear
6:35 AM 32.0 °F 25.6 °F 21.2 °F 64% 30.22 in 10.0 mi WNW 6.9 mph - N/A   Clear
6:55 AM 32.0 °F 26.4 °F 21.2 °F 64% 30.23 in 10.0 mi NW 5.8 mph - N/A   Clear
7:35 AM 35.6 °F 29.9 °F 24.8 °F 65% 30.24 in 10.0 mi NW 6.9 mph - N/A   Clear
7:55 AM 37.4 °F 30.8 °F 24.8 °F 60% 30.25 in 10.0 mi NW 9.2 mph - N/A   Clear
8:15 AM 37.4 °F 30.8 °F 26.6 °F 65% 30.26 in 10.0 mi NNW 9.2 mph - N/A   Clear
8:35 AM 39.2 °F 33.0 °F 26.6 °F 61% 30.26 in 10.0 mi NNW 9.2 mph - N/A   Clear
8:55 AM 41.0 °F 33.9 °F 28.4 °F 61% 30.26 in 10.0 mi NNW 12.7 mph - N/A   Clear
9:15 AM 42.8 °F 37.0 °F 28.4 °F 57% 30.27 in 10.0 mi NNW 10.4 mph - N/A   Clear
9:35 AM 42.8 °F 38.6 °F 28.4 °F 57% 30.28 in 10.0 mi North 6.9 mph - N/A   Clear
9:55 AM 44.6 °F 39.7 °F 28.4 °F 53% 30.28 in 10.0 mi NW 9.2 mph - N/A   Clear
10:15 AM 44.6 °F 39.7 °F 28.4 °F 53% 30.28 in 10.0 mi North 9.2 mph - N/A   Clear
10:35 AM 44.6 °F 39.7 °F 28.4 °F 53% 30.29 in 10.0 mi North 9.2 mph - N/A   Unknown
10:55 AM 46.4 °F 40.7 °F 28.4 °F 50% 30.29 in 10.0 mi NNW 12.7 mph 17.3 mph N/A   Partly Cloudy
11:15 AM 46.4 °F 45.2 °F 28.4 °F 50% 30.29 in 10.0 mi NNE 3.5 mph - N/A   Mostly Cloudy
11:35 AM 46.4 °F 42.4 °F 28.4 °F 50% 30.29 in 10.0 mi NE 8.1 mph - N/A   Overcast
11:55 AM 44.6 °F 39.7 °F 30.2 °F 57% 30.29 in 10.0 mi NNE 9.2 mph - N/A   Overcast
12:15 PM 44.6 °F 38.8 °F 30.2 °F 57% 30.29 in 10.0 mi ENE 11.5 mph - N/A   Overcast
12:35 PM 46.4 °F 41.9 °F 28.4 °F 50% 30.29 in 10.0 mi ENE 9.2 mph - N/A   Overcast
12:55 PM 46.4 °F 42.9 °F 28.4 °F 50% 30.29 in 10.0 mi NNE 6.9 mph - N/A   Mostly Cloudy
1:35 PM 46.4 °F 42.9 °F 28.4 °F 50% 30.29 in 10.0 mi NNE 6.9 mph - N/A   Overcast
1:55 PM 46.4 °F 42.4 °F 30.2 °F 53% 30.29 in 10.0 mi NE 8.1 mph - N/A   Overcast
2:15 PM 46.4 °F 42.4 °F 28.4 °F 50% 30.29 in 10.0 mi NE 8.1 mph - N/A   Overcast
2:35 PM 46.4 °F 41.9 °F 28.4 °F 50% 30.29 in 10.0 mi NE 9.2 mph - N/A   Overcast
2:55 PM 46.4 °F 42.4 °F 28.4 °F 50% 30.28 in 10.0 mi ENE 8.1 mph - N/A   Scattered Clouds
3:15 PM 46.4 °F 41.1 °F 30.2 °F 53% 30.28 in 10.0 mi ESE 11.5 mph - N/A   Partly Cloudy
3:35 PM 46.4 °F 40.7 °F 30.2 °F 53% 30.28 in 10.0 mi ESE 12.7 mph - N/A   Partly Cloudy
3:55 PM 46.4 °F 40.1 °F 30.2 °F 53% 30.28 in 10.0 mi ESE 15.0 mph - N/A   Partly Cloudy
4:15 PM 44.6 °F 38.4 °F 30.2 °F 57% 30.28 in 10.0 mi East 12.7 mph - N/A   Mostly Cloudy
4:35 PM 44.6 °F 38.8 °F 30.2 °F 57% 30.29 in 10.0 mi SE 11.5 mph 17.3 mph N/A   Partly Cloudy
4:55 PM 42.8 °F 36.6 °F 28.4 °F 57% 30.29 in 10.0 mi East 11.5 mph - N/A   Clear
5:15 PM 42.8 °F 37.0 °F 30.2 °F 61% 30.29 in 10.0 mi East 10.4 mph - N/A   Clear
5:35 PM 42.8 °F 37.0 °F 30.2 °F 61% 30.29 in 10.0 mi ESE 10.4 mph - N/A   Clear
5:55 PM 42.8 °F 37.5 °F 30.2 °F 61% 30.29 in 10.0 mi East 9.2 mph - N/A   Clear
6:15 PM 42.8 °F 38.0 °F 28.4 °F 57% 30.28 in 10.0 mi East 8.1 mph - N/A   Clear
6:35 PM 42.8 °F 38.6 °F 28.4 °F 57% 30.28 in 10.0 mi East 6.9 mph - N/A   Clear
6:55 PM 41.0 °F 36.4 °F 28.4 °F 61% 30.28 in 10.0 mi East 6.9 mph - N/A   Clear
7:15 PM 39.2 °F 34.2 °F 28.4 °F 65% 30.27 in 10.0 mi SE 6.9 mph - N/A   Clear
7:35 PM 39.2 °F 35.0 °F 28.4 °F 65% 30.27 in 10.0 mi East 5.8 mph - N/A   Clear
7:55 PM 37.4 °F 34.9 °F 28.4 °F 70% 30.27 in 10.0 mi East 3.5 mph - N/A   Clear
8:15 PM 37.4 °F - 28.4 °F 70% 30.27 in 10.0 mi Calm Calm - N/A   Clear
8:35 PM 37.4 °F - 28.4 °F 70% 30.27 in 10.0 mi Calm Calm - N/A   Clear
8:55 PM 37.4 °F 34.9 °F 28.4 °F 70% 30.27 in 10.0 mi ESE 3.5 mph - N/A   Clear
9:15 PM 35.6 °F - 28.4 °F 75% 30.27 in 10.0 mi Calm Calm - N/A   Clear
9:35 PM 35.6 °F - 28.4 °F 75% 30.27 in 10.0 mi Calm Calm - N/A   Clear
9:55 PM 35.6 °F - 28.4 °F 75% 30.27 in 10.0 mi Calm Calm - N/A   Clear
10:15 PM 35.6 °F - 28.4 °F 75% 30.27 in 10.0 mi Calm Calm - N/A   Clear
10:35 PM 33.8 °F - 28.4 °F 81% 30.27 in 10.0 mi Calm Calm - N/A   Clear
10:55 PM 33.8 °F - 28.4 °F 81% 30.27 in 10.0 mi Calm Calm - N/A   Clear
11:15 PM 33.8 °F - 28.4 °F 81% 30.26 in 10.0 mi Calm Calm - N/A   Clear
11:35 PM 33.8 °F - 28.4 °F 81% 30.26 in 10.0 mi Calm Calm - N/A   Clear
11:55 PM 33.8 °F - 28.4 °F 81% 30.26 in 10.0 mi Calm Calm - N/A   Clear